Regional Weather Roundup
Issued by NWS

Home | Current Version | Previous Version | Graphics & Text | Print | Product List | Glossary On
Versions: 1 2 3 4 5 6 7 8 9 10 11 12 13 14 15 16 17 18 19 20 21 22 23 24 25 26 27 28 29 30 31 32 33 34 35 36 37 38 39 40 41 42 43 44 45 46 47 48 49 50
000
ASUS43 KBIS 270620
RWRND

NORTH DAKOTA REGIONAL WEATHER ROUNDUP
NATIONAL WEATHER SERVICE BISMARCK ND
100 AM CDT WED MAY 27 2015

NOTE: "FAIR" INDICATES FEW OR NO CLOUDS BELOW 12,000 FEET WITH NO
SIGNIFICANT WEATHER AND/OR OBSTRUCTIONS TO VISIBILITY.


NDZ001>003-009>011-017-270700-
NORTHWEST NORTH DAKOTA

CITY           SKY/WX    TMP DP  RH WIND       PRES   REMARKS
WILLISTON      PTCLDY    63  45  51 S3        29.90S
6HR MIN TEMP:  61; 6HR MAX TEMP:  81; 6HR PCP: TRACE;

MINOT          CLEAR     62  45  53 SW10      29.87R
MINOT AFB      CLEAR     57  54  91 W6        29.86S
$$

NDZ018>021-031>035-040>046-270700-
SOUTHWEST NORTH DAKOTA

CITY           SKY/WX    TMP DP  RH WIND       PRES   REMARKS
BISMARCK       CLEAR     56  51  84 CALM      29.92R
6HR MIN TEMP:  54; 6HR MAX TEMP:  75;

DICKINSON      CLEAR     52  43  71 S9        29.93S
GARRISON         N/A     58  48  69 W3        29.90S
6HR MIN TEMP:  54; 6HR MAX TEMP:  77;

HETTINGER ARPT CLEAR     50  45  83 CALM      29.97S
$$

NDZ004>008-012>016-024-026-027-054-270700-
NORTHEAST NORTH DAKOTA

CITY           SKY/WX    TMP DP  RH WIND       PRES   REMARKS
GRAND FORKS    PTCLDY    59  51  75 W7        29.77S
GRND FRKS AFB  PTCLDY    65  46  50 NW10      29.80R
DEVILS LAKE    CLEAR     57  46  67 W8        29.84F
$$

NDZ022-023-025-028>030-036>039-047>053-270700-
SOUTHEAST NORTH DAKOTA

CITY           SKY/WX    TMP DP  RH WIND       PRES   REMARKS
FARGO          PTCLDY    62  53  72 SW6       29.79R
6HR MIN TEMP:  59; 6HR MAX TEMP:  77;

JAMESTOWN      PTCLDY    58  48  69 NW9       29.85S
$$



USA.gov is the U.S. government's official web portal to all federal, state and local government web resources and services.